Вернуться в каталог

FENGYUN 1C

АктивенПогодаSSO
NORAD 25730·PAYLOAD·🇨🇳 China

Запущен May 10, 1999 с Taiyuan Satellite Launch Center

Loading…

Ближайшие Пролёты (ближайшие 24 часа)

TLE

СвежийSource: Space-Track

Эпоха: Sep 14, 2026, 04:53 UTC

1 25730U 99025A   26257.20386953  .00001632  00000-0  68576-3 0  9997
2 25730  98.8586 331.8957 0012843   8.2677 351.8712 14.27247752410651

Отслеживайте FENGYUN 1C в реальном времени с AllMySat

Download on the App Store